Faro, Portugal

2:12 PM WET on February 22, 2017 (GMT +0000)
Faro

Weather History for 08554 - October, 2013

Change the Weather History Date:

Friday, October 25, 2013

  Actual Average Record
Temperature  
Mean Temperature 64 °F -  
Max Temperature 68 °F 66 °F - ()
Min Temperature 60 °F 52 °F - ()
Degree Days  
Heating Degree Days 1    
Growing Degree Days 14 (Base 50)    
Moisture  
Dew Point 62 °F    
Average Humidity 91    
Maximum Humidity 100    
Minimum Humidity 78    
Precipitation  
Precipitation 1.10 in 0.11 in - ()
Sea Level Pressure  
Sea Level Pressure 29.86 in    
Wind  
Wind Speed 7 mph ()    
Max Wind Speed 17 mph    
Max Gust Speed -    
Visibility 5.7 miles    
Events Rain , Thunderstorm    
T = Trace of Precipitation, MM = Missing Value Source: Averaged Metar Reports

Daily Weather History Graph

Daily Weather History Graph

Search for Another Location

Airport or City:

Trip Planner

Search our weather history database for the weather conditions in past years. The results will help you decide how hot, cold, wet, or windy it might be!

Date:

Astronomy

Oct. 25, 2013 Rise Set
Actual Time 7:49 AM WEST 6:42 PM WEST
Civil Twilight 7:22 AM WEST 7:08 PM WEST
Nautical Twilight 6:52 AM WEST 7:39 PM WEST
Astronomical Twilight 6:21 AM WEST 8:09 PM WEST
Moon 11:51 PM WEST (10/25) 1:18 PM WEST (10/25)
Length of Visible Light 11h 46m
Length of Day
10h 53m
Waning Gibbous, 64% of the Moon is Illuminated
Oct 25
Waning Gibbous
Oct 27
Last Quarter
Nov 3
New
Nov 10
First Quarter
Nov 17
Full

Hourly Weather History & Observations

Time (WEST) Temp. Dew Point Humidity Pressure Visibility Wind Dir Wind Speed Gust Speed Precip Events Conditions
12:00 AM 66.2 °F 64.4 °F 94% 29.89 in 4.3 mi West 13.8 mph - N/A Rain Rain Showers
12:30 AM 64.4 °F 60.8 °F 88% 29.89 in 6.2 mi WSW 12.7 mph - N/A Rain Rain Showers
1:00 AM 64.4 °F 60.8 °F 88% 29.89 in 6.2 mi Variable 2.3 mph - N/A Rain Rain
1:30 AM 64.4 °F 62.6 °F 94% 29.89 in 6.2 mi SSE 4.6 mph - N/A Rain Rain
2:00 AM 64.4 °F 62.6 °F 94% 29.86 in 6.2 mi SE 5.8 mph - N/A Rain Rain
2:30 AM 64.4 °F 62.6 °F 94% 29.86 in 6.2 mi South 4.6 mph - N/A   Scattered Clouds
3:00 AM 64.4 °F 62.6 °F 94% 29.83 in 6.2 mi East 2.3 mph - N/A   Mostly Cloudy
3:30 AM 64.4 °F 62.6 °F 94% 29.83 in 6.2 mi Variable 2.3 mph - N/A   Scattered Clouds
4:00 AM 66.2 °F 64.4 °F 94% 29.83 in 6.2 mi SSW 6.9 mph - N/A   Scattered Clouds
4:30 AM 66.2 °F 64.4 °F 94% 29.83 in 2.5 mi SW 8.1 mph - N/A Rain Rain
5:00 AM 66.2 °F 64.4 °F 94% 29.83 in 6.2 mi SSW 9.2 mph - N/A Rain Light Rain
5:30 AM 66.2 °F 64.4 °F 94% 29.83 in 6.2 mi SSW 10.4 mph - N/A Rain Light Rain
6:00 AM 68.0 °F 64.4 °F 88% 29.83 in 6.2 mi SSW 8.1 mph - N/A Rain Light Rain
6:30 AM 68.0 °F 64.4 °F 88% 29.83 in 6.2 mi SSW 8.1 mph - N/A Rain Light Rain
7:00 AM 68.0 °F 64.4 °F 88% 29.83 in 6.2 mi SSW 5.8 mph - N/A   Scattered Clouds
7:30 AM 66.2 °F 62.6 °F 88% 29.80 in 6.2 mi Variable 2.3 mph - N/A   Scattered Clouds
8:00 AM 66.2 °F 64.4 °F 94% 29.83 in 6.2 mi SE 4.6 mph - N/A Rain Light Rain
8:30 AM 68.0 °F 64.4 °F 88% 29.83 in 6.2 mi SSE 10.4 mph - N/A Rain Light Rain
9:00 AM 68.0 °F 66.2 °F 94% 29.83 in 4.3 mi SSE 12.7 mph - N/A Rain Rain
9:30 AM 68.0 °F 64.4 °F 88% 29.83 in 6.2 mi South 16.1 mph - N/A Rain Light Rain
10:00 AM 68 °F 63 °F 78% 29.87 in 6 mi South 15.7 mph - - Rain Light Rain
10:00 AM 68.0 °F 64.4 °F 88% 29.83 in 6.2 mi South 17.3 mph - N/A Rain Light Rain
10:30 AM 68.0 °F 64.4 °F 88% 29.83 in 6.2 mi SSE 15.0 mph - N/A Rain Light Rain
11:00 AM 68.0 °F 64.4 °F 88% 29.86 in 6.2 mi South 12.7 mph - N/A Rain Light Rain
11:30 AM 68.0 °F 64.4 °F 88% 29.83 in 6.2 mi South 10.4 mph - N/A Rain Light Rain
12:00 PM 68.0 °F 60.8 °F 78% 29.86 in 6.2 mi SW 15.0 mph - N/A Rain Light Rain
12:30 PM 66.2 °F 60.8 °F 83% 29.86 in 6.2 mi West 16.1 mph - N/A   Scattered Clouds
1:00 PM 65 °F 61 °F 83% 29.87 in - WNW 8.9 mph - -  
1:00 PM 64.4 °F 62.6 °F 94% 29.83 in 5.0 mi WNW 12.7 mph - N/A Rain Light Rain
1:30 PM 64.4 °F 62.6 °F 94% 29.83 in 3.1 mi WNW 9.2 mph - N/A Rain , Thunderstorm Light Thunderstorms and Rain
2:00 PM 62.6 °F 60.8 °F 94% 29.83 in 1.9 mi WNW 5.8 mph - N/A Rain , Thunderstorm Light Thunderstorms and Rain
2:30 PM 62.6 °F 62.6 °F 100% 29.83 in 1.9 mi ENE 6.9 mph - N/A Rain , Thunderstorm Thunderstorms and Rain
3:00 PM 62.6 °F 60.8 °F 94% 29.83 in 3.7 mi West 5.8 mph - N/A Rain Rain
3:30 PM 62.6 °F 62.6 °F 100% 29.83 in 6.2 mi North 5.8 mph - N/A Rain Light Rain
4:00 PM 63 °F 59 °F 83% 29.85 in - NNE 2.2 mph - -  
4:00 PM 62.6 °F 60.8 °F 94% 29.83 in 3.1 mi NE 4.6 mph - N/A Rain Rain
4:30 PM 62.6 °F 60.8 °F 94% 29.77 in 5.6 mi East 12.7 mph - N/A Rain Light Rain
5:00 PM 64.4 °F 62.6 °F 94% 29.86 in 6.2 mi SSW 8.1 mph - N/A   Partly Cloudy
5:30 PM 64.4 °F 60.8 °F 88% 29.86 in 6.2 mi SSE 5.8 mph - N/A   Partly Cloudy
6:00 PM 64.4 °F 59.0 °F 83% 29.86 in 6.2 mi SW 4.6 mph - N/A   Partly Cloudy
6:30 PM 64.4 °F 60.8 °F 88% 29.86 in 6.2 mi WSW 4.6 mph - N/A   Partly Cloudy
7:00 PM 64 °F 59 °F 78% 29.93 in - Calm Calm - -  
7:00 PM 64.4 °F 60.8 °F 88% 29.89 in 6.2 mi Variable 1.2 mph - N/A   Partly Cloudy
7:30 PM 64.4 °F 60.8 °F 88% 29.92 in 6.2 mi Variable 2.3 mph - N/A   Partly Cloudy
8:00 PM 62.6 °F 60.8 °F 94% 29.92 in 6.2 mi ENE 4.6 mph - N/A   Scattered Clouds
8:30 PM 62.6 °F 60.8 °F 94% 29.92 in 6.2 mi NE 4.6 mph - N/A   Scattered Clouds
9:00 PM 62.6 °F 60.8 °F 94% 29.95 in 6.2 mi Variable 4.6 mph - N/A   Scattered Clouds
9:30 PM 62.6 °F 60.8 °F 94% 29.95 in 6.2 mi NE 4.6 mph - N/A   Scattered Clouds
10:00 PM 62 °F 58 °F 84% 29.97 in - North 2.2 mph - -  
10:00 PM 62.6 °F 60.8 °F 94% 29.95 in 6.2 mi North 4.6 mph - N/A   Scattered Clouds
10:30 PM 60.8 °F 60.8 °F 100% 29.95 in 6.2 mi NNE 4.6 mph - N/A   Scattered Clouds
11:00 PM 60.8 °F 60.8 °F 100% 29.95 in 6.2 mi NNE 5.8 mph - N/A   Scattered Clouds
11:30 PM 62.6 °F 60.8 °F 94% 29.98 in 6.2 mi NE 4.6 mph - N/A   Scattered Clouds